Date String (YYYY-MM-DD hh:mm:ss) UTC,Instrument flags,Ambient pressure (hPa),Sample flow (lpm),Bypass flow (lpm),Sample temperature (°C),Ambient temperature (°C),ASC tube jacket temperature (°C),LED temperature (°C),Box temperature (°C),Sample RH (%),Span deviation,Mass concentration (μg/m³),Mass concentration (μg/m³),Mass concentration (μg/m³)
DateTimeUTC,F1_M11,P_M11,Q1_M11,Q2_M11,T1_M11,T2_M11,T3_M11,T4_M11,T5_M11,U1_M11,ZSPAN_M11,X0_M11,X2_M11,X1_M11
2022-06-02 09:00:00,,0828.9,5.00,0.00,25.9,24.7,00.0,34.8,27.8,22.0,0000.0,0005.61,0003.72,0003.44
2022-06-02 09:01:00,,0828.8,5.00,0.00,25.9,24.7,00.0,34.8,27.8,22.2,0000.0,0005.60,0003.77,0003.46
2022-06-02 09:02:00,,0828.7,5.00,0.00,25.9,24.7,00.0,34.8,27.8,22.3,0000.0,0005.78,0003.83,0003.50
2022-06-02 09:03:00,,0829.0,5.00,0.00,25.9,24.7,00.0,34.8,27.8,22.4,0000.0,0005.91,0003.88,0003.54
2022-06-02 09:04:00,,0829.3,5.00,0.00,25.9,24.7,00.0,34.8,27.8,22.5,0000.0,0006.06,0003.94,0003.59
2022-06-02 09:05:00,,0829.3,5.00,0.00,25.9,24.7,00.0,34.8,27.8,22.5,0000.0,0006.30,0004.03,0003.66
2022-06-02 09:06:00,,0828.9,4.99,0.00,25.9,24.7,00.0,34.8,27.8,22.5,0000.0,0006.70,0004.12,0003.73
2022-06-02 09:07:00,,0828.9,5.01,0.00,25.9,24.7,00.0,34.8,27.8,22.7,0000.0,0007.07,0004.19,0003.82
2022-06-02 09:08:00,,0828.9,4.99,0.00,25.9,24.7,00.0,34.8,27.8,22.9,0000.0,0007.23,0004.31,0003.94
2022-06-02 09:09:00,,0828.9,5.01,0.00,25.9,24.7,00.0,34.8,27.8,23.0,0000.0,0007.39,0004.44,0004.07
2022-06-02 09:10:00,,0828.9,5.00,0.00,25.9,24.7,00.0,34.8,27.8,23.1,0000.0,0007.51,0004.57,0004.20
2022-06-02 09:11:00,,0829.0,5.00,0.00,25.9,24.7,00.0,34.8,27.8,23.1,0000.0,0007.58,0004.67,0004.30
2022-06-02 09:12:00,,0829.0,4.99,0.00,25.9,24.7,00.0,34.8,27.8,23.1,0000.0,0007.80,0004.72,0004.38
2022-06-02 09:13:00,,0828.9,5.00,0.00,25.9,24.7,00.0,34.8,27.8,23.2,0000.0,0008.47,0004.79,0004.47
2022-06-02 09:14:00,,0829.0,5.01,0.00,25.9,24.7,00.0,34.8,27.8,23.2,0000.0,0008.84,0004.85,0004.53
2022-06-02 09:15:00,,0829.0,5.00,0.00,25.9,24.7,00.0,34.8,27.8,23.0,0000.0,0008.91,0004.91,0004.59
2022-06-02 09:16:00,,0829.0,4.99,0.00,25.9,24.7,00.0,34.8,27.8,22.8,0000.0,0008.92,0004.92,0004.60
2022-06-02 09:17:00,,0828.9,5.01,0.00,25.9,24.7,00.0,34.8,27.8,22.8,0000.0,0008.85,0004.93,0004.60
2022-06-02 09:18:00,,0829.0,4.99,0.00,25.9,24.7,00.0,34.8,27.8,23.1,0000.0,0008.72,0004.97,0004.63
2022-06-02 09:19:00,,0828.9,5.00,0.00,25.9,24.7,00.0,34.8,27.8,23.3,0000.0,0008.74,0004.98,0004.66
2022-06-02 09:20:00,,0828.9,5.00,0.00,25.8,24.7,00.0,34.8,27.8,23.4,0000.0,0008.81,0005.01,0004.68
2022-06-02 09:21:00,,0828.8,4.99,0.00,25.8,24.7,00.0,34.8,27.8,23.4,0000.0,0008.86,0005.04,0004.71
2022-06-02 09:22:00,,0828.8,5.01,0.00,25.9,24.7,00.0,34.8,27.8,23.4,0000.0,0009.14,0005.06,0004.73
2022-06-02 09:23:00,,0828.8,4.99,0.00,25.8,24.7,00.0,34.8,27.8,23.3,0000.0,0009.15,0005.06,0004.73
2022-06-02 09:24:00,,0829.1,5.01,0.00,25.8,24.7,00.0,34.8,27.8,23.4,0000.0,0008.51,0005.07,0004.73
2022-06-02 09:25:00,,0829.2,4.99,0.00,25.8,24.7,00.0,34.8,27.8,23.7,0000.0,0008.23,0005.13,0004.78
2022-06-02 09:26:00,,0828.9,5.00,0.00,25.8,24.7,00.0,34.8,27.8,23.6,0000.0,0008.17,0005.16,0004.84
2022-06-02 09:27:00,,0828.9,5.02,0.00,25.8,24.7,00.0,34.8,27.8,23.5,0000.0,0008.21,0005.20,0004.90
2022-06-02 09:28:00,,0828.8,4.99,0.00,25.8,24.7,00.0,34.8,27.8,23.6,0000.0,0008.29,0005.28,0004.99
2022-06-02 09:29:00,,0828.9,5.00,0.00,25.8,24.7,00.0,34.8,27.8,23.6,0000.0,0008.34,0005.34,0005.05
2022-06-02 09:30:00,,0828.8,4.99,0.00,25.8,24.7,00.0,34.8,27.8,23.7,0000.0,0008.66,0005.36,0005.08
2022-06-02 09:31:00,,0828.8,5.00,0.00,25.8,24.7,00.0,34.8,27.8,23.8,0000.0,0008.70,0005.41,0005.13
2022-06-02 09:32:00,,0829.0,5.00,0.00,25.8,24.7,00.0,34.8,27.8,23.8,0000.0,0008.78,0005.47,0005.17
2022-06-02 09:33:00,,0829.2,5.00,0.00,25.8,24.7,00.0,34.8,27.8,23.8,0000.0,0008.64,0005.51,0005.20
2022-06-02 09:34:00,,0829.2,4.99,0.00,25.8,24.7,00.0,34.8,27.8,23.7,0000.0,0008.42,0005.54,0005.24
2022-06-02 09:35:00,,0829.1,5.01,0.00,25.8,24.7,00.0,34.7,27.8,23.7,0000.0,0008.38,0005.56,0005.27
2022-06-02 09:36:00,,0828.9,5.00,0.00,25.8,24.7,00.0,34.7,27.8,23.7,0000.0,0008.36,0005.54,0005.25
2022-06-02 09:37:00,,0828.8,4.99,0.00,25.8,24.7,00.0,34.7,27.7,23.6,0000.0,0008.37,0005.51,0005.21
2022-06-02 09:38:00,,0828.8,5.01,0.00,25.8,24.7,00.0,34.7,27.8,23.6,0000.0,0008.44,0005.55,0005.22
2022-06-02 09:39:00,,0828.9,5.00,0.00,25.8,24.7,00.0,34.7,27.8,23.6,0000.0,0008.45,0005.57,0005.22
2022-06-02 09:40:00,,0828.9,5.01,0.00,25.8,24.7,00.0,34.7,27.8,23.5,0000.0,0008.41,0005.53,0005.20
2022-06-02 09:41:00,,0828.9,4.99,0.00,25.8,24.7,00.0,34.7,27.7,23.4,0000.0,0008.08,0005.49,0005.16
2022-06-02 09:42:00,,0829.0,5.01,0.00,25.8,24.7,00.0,34.7,27.7,23.5,0000.0,0008.10,0005.48,0005.12
2022-06-02 09:43:00,,0829.0,4.99,0.00,25.8,24.6,00.0,34.7,27.7,23.6,0000.0,0008.04,0005.41,0005.07
2022-06-02 09:44:00,,0829.1,5.01,0.00,25.8,24.6,00.0,34.7,27.7,23.6,0000.0,0008.09,0005.38,0005.04
2022-06-02 09:45:00,,0829.1,5.00,0.00,25.8,24.7,00.0,34.7,27.7,23.8,0000.0,0008.30,0005.43,0005.05
2022-06-02 09:46:00,,0828.7,4.99,0.00,25.8,24.7,00.0,34.7,27.7,23.8,0000.0,0008.41,0005.48,0005.06
2022-06-02 09:47:00,,0829.0,5.01,0.00,25.8,24.7,00.0,34.7,27.7,23.6,0000.0,0008.46,0005.48,0005.05
2022-06-02 09:48:00,,0828.9,5.00,0.00,25.8,24.7,00.0,34.7,27.7,23.6,0000.0,0008.49,0005.48,0005.04
2022-06-02 09:49:00,,0828.8,4.98,0.00,25.8,24.7,00.0,34.7,27.7,23.5,0000.0,0008.46,0005.44,0005.00
2022-06-02 09:50:00,,0828.9,5.00,0.00,25.8,24.7,00.0,34.7,27.7,23.3,0000.0,0008.42,0005.38,0004.95
2022-06-02 09:51:00,,0829.0,5.00,0.00,25.8,24.6,00.0,34.7,27.7,23.1,0000.0,0008.39,0005.30,0004.89
2022-06-02 09:52:00,,0828.9,4.99,0.00,25.8,24.6,00.0,34.7,27.7,22.9,0000.0,0008.46,0005.26,0004.84
2022-06-02 09:53:00,,0828.9,4.99,0.00,25.8,24.6,00.0,34.7,27.7,22.9,0000.0,0008.40,0005.17,0004.78
2022-06-02 09:54:00,,0828.7,5.00,0.00,25.8,24.6,00.0,34.7,27.7,22.9,0000.0,0008.58,0005.11,0004.71
2022-06-02 09:55:00,,0828.7,5.00,0.00,25.8,24.6,00.0,34.7,27.7,22.9,0000.0,0008.50,0005.02,0004.64
2022-06-02 09:56:00,,0828.7,5.00,0.00,25.8,24.6,00.0,34.7,27.7,22.9,0000.0,0008.17,0004.88,0004.53
2022-06-02 09:57:00,,0828.7,5.00,0.00,25.8,24.6,00.0,34.7,27.7,22.9,0000.0,0008.03,0004.78,0004.45
2022-06-02 09:58:00,,0828.7,5.01,0.00,25.8,24.6,00.0,34.7,27.7,22.8,0000.0,0007.91,0004.69,0004.37
2022-06-02 09:59:00,,0828.7,4.98,0.00,25.8,24.6,00.0,34.7,27.7,22.7,0000.0,0007.85,0004.62,0004.31
